sat.trackr.live / text

‹ back to catalog

STARLINK-1271

NORAD 45217 · 2020-012AR

PAYLOAD ACTIVE UNKNOWN

§ Identity

Operator
Country
US
Launch date
2020-02-17
Launch site
AFETR
Launch vehicle
Mass (kg)
RCS (m²)

Purposes: comms

External: N2YO · Heavens-Above · Gunter

§ Orbital elements

Epoch: 2026-09-20T01:58:25.943808Z

Period
93.27 min
Inclination
53.1532°
Eccentricity
0.0002006
Mean motion
15.43980248 rev/d
Perigee alt
433.0 km
Apogee alt
435.7 km
Semi-major
6,812.5 km
B*
9.2765e-4
RAAN
193.0535°
Arg perigee
109.2805°
Mean anomaly
250.8419°
Rev number
36,503

§ Raw data

STARLINK-12711 45217U 20012AR  26263.08224472  .00042739  00000+0  92765-3 0  99982 45217  53.1532 193.0535 0002006 109.2805 250.8419 15.43980248365039

JSON: /api/v1/satellites/45217 · /tle

For live sub-satellite position, see the globe view (requires WebGL).

§ Visibility from observer

Set your observer location to see the next 7 days of passes ≥ 10°. The values pass through the URL so the page stays shareable.

No JS? Fill the form by hand. The geolocation button needs JavaScript.